Theta_e
340 336 335 333 334 333 330 330 328 325 323 328 329 329 327 325 325 331 330 329 329 328 327 327 326 327 328 328 322 328 333 329 331 332 332 331 330 330 326 321 317 311 307
340 337 334 333 334 334 331 329 328 327 326 323 330 328 326 324 323 329 328 328 328 328 325 322 324 322 324 325 320 327 332 331 330 330 330 329 326 324 322 317 312 309 306
340 336 335 333 334 336 332 330 329 330 328 322 326 330 328 320 320 324 320 328 327 327 327 325 326 324 319 322 323 329 330 330 329 328 328 328 326 323 319 313 310 308 305
340 337 337 334 335 335 332 330 331 330 329 326 326 330 329 320 324 328 323 326 327 327 326 322 324 325 320 319 322 327 327 328 327 326 327 327 325 321 315 313 310 306 307
340 341 338 334 335 334 332 330 331 330 331 328 329 327 326 323 328 327 327 327 325 326 325 325 323 324 324 324 322 322 324 326 324 326 326 323 325 315 314 311 309 305 315
340 340 334 334 334 333 332 330 330 329 331 330 326 329 328 326 320 326 325 326 327 327 326 325 324 324 323 325 326 325 322 321 323 327 326 320 318 314 311 308 306 304 307
340 341 333 333 334 333 332 330 329 329 329 330 323 332 329 328 326 322 325 326 326 325 325 326 324 320 322 324 326 326 325 322 326 326 324 324 317 312 311 309 305 305 307
339 341 341 333 334 333 332 331 330 329 328 329 326 326 329 328 326 324 324 325 324 323 323 324 321 318 321 324 325 325 323 322 322 324 324 324 318 313 312 311 308 305 306
339 340 340 338 333 333 333 332 330 327 327 329 328 326 327 328 324 320 325 324 322 318 318 313 315 317 318 319 324 324 322 320 324 324 323 323 321 313 313 312 311 307 305
338 338 339 342 341 333 332 332 332 329 326 327 329 328 326 322 323 324 320 317 319 320 315 312 311 314 316 316 317 317 317 318 318 324 323 323 318 313 313 313 312 311 307
337 333 337 338 339 340 340 338 332 331 328 325 325 328 327 324 325 321 323 323 320 319 318 314 311 311 311 313 314 315 316 316 323 323 323 322 317 313 313 312 312 311 311
338 333 330 332 336 335 337 336 333 332 331 328 325 325 326 326 326 328 325 320 320 322 322 319 313 311 311 311 316 314 313 318 322 322 322 322 315 314 316 313 311 311 311
335 337 330 330 332 335 335 334 333 333 333 331 330 326 326 327 327 324 321 322 320 319 320 321 318 314 312 311 316 320 321 321 322 322 322 319 313 314 317 320 315 311 310
331 333 335 337 335 329 333 335 332 333 333 332 331 330 328 326 326 326 326 324 325 323 323 323 323 323 321 316 312 312 315 317 319 320 318 313 313 314 314 320 320 315 312
324 326 328 332 335 335 326 329 337 338 336 332 333 331 331 330 328 326 326 326 325 324 323 323 323 323 323 321 317 314 312 312 312 314 314 315 312 312 314 315 321 320 319
321 321 323 325 330 332 335 325 324 334 333 336 331 331 331 331 331 330 327 327 326 326 324 323 323 323 323 322 322 319 317 314 313 313 314 316 312 312 313 314 315 319 320
319 319 318 319 322 325 323 327 333 329 330 327 332 330 329 330 331 332 331 329 328 327 326 325 324 322 321 322 322 322 319 317 314 314 313 313 313 312 312 313 314 315 319
318 316 316 317 318 319 319 322 328 331 333 327 324 326 327 328 329 331 332 331 330 329 328 327 326 325 323 320 321 321 321 320 316 315 314 314 314 313 312 312 312 314 315
316 316 317 317 318 319 320 321 322 323 326 331 327 329 325 323 326 329 330 331 331 331 330 329 327 326 326 325 323 321 320 320 319 317 313 313 313 313 313 313 312 312 313
315 315 315 316 316 316 316 318 320 322 322 323 325 321 321 323 323 327 328 330 332 331 331 330 330 328 327 326 325 324 322 321 319 318 316 315 313 312 312 312 313 313 312
314 314 315 315 315 315 315 318 321 325 327 327 324 321 320 323 322 323 327 332 332 330 332 331 330 329 329 328 326 326 325 324 323 323 322 320 319 317 315 313 312 312 312
314 315 316 316 316 316 315 316 322 325 326 327 328 329 328 323 324 325 325 327 330 328 329 331 330 329 328 328 327 327 323 325 326 326 325 323 323 321 316 314 313 312 311
314 315 315 316 316 317 316 316 316 319 322 325 327 328 328 328 327 328 326 327 330 326 327 330 329 327 328 327 327 327 324 325 326 326 324 323 323 324 323 321 317 314 312
314 315 315 316 317 317 317 318 319 323 325 325 326 327 327 327 327 326 328 327 327 327 326 327 329 327 326 326 326 326 326 326 326 326 326 325 324 322 323 323 321 320 317
312 313 314 315 317 318 319 319 319 323 325 325 325 325 326 327 326 327 327 326 326 325 325 325 325 326 325 326 326 326 325 325 325 323 324 324 326 325 325 325 324 324 323
311 311 311 312 313 313 314 316 318 320 321 322 323 323 324 324 325 326 324 325 326 326 325 324 323 324 325 324 324 325 325 324 324 324 323 323 323 323 324 324 324 324 324
Wind_Speed
6 6 7 7 6 7 6 5 5 7 6 6 2 2 3 5 10 10 9 8 7 8 9 8 8 9 9 10 10 11 11 13 13 14 11 8 8 6 6 8 8 10 9
9 7 8 6 6 6 5 5 5 5 5 3 2 1 2 4 7 7 7 8 7 7 6 12 12 9 7 9 10 10 12 13 11 8 7 6 5 4 5 7 8 9 7
11 8 7 6 5 5 4 4 5 6 7 5 4 2 2 3 4 6 5 7 7 4 5 11 12 8 9 9 10 9 9 8 7 7 12 8 3 3 5 7 7 6 5
9 8 7 6 7 5 3 3 5 6 7 7 6 3 1 3 5 4 3 6 6 5 4 6 10 7 7 7 7 6 6 5 2 4 5 5 5 3 5 5 5 4 5
9 8 8 5 7 5 2 1 3 5 6 7 5 1 3 2 3 3 4 4 4 4 2 5 7 5 5 4 4 3 4 3 1 4 2 2 2 3 4 4 2 2 4
8 7 6 5 6 5 2 1 3 5 4 5 2 1 3 5 3 7 3 4 3 4 5 3 2 4 6 6 3 2 4 4 3 0 2 3 6 3 3 2 1 2 3
6 6 6 5 6 4 3 3 3 4 4 3 1 3 3 7 4 5 4 4 3 3 3 5 3 3 7 6 4 3 3 3 1 1 2 2 4 4 4 3 1 2 3
6 6 6 5 6 5 5 4 5 6 5 3 2 3 5 7 6 5 6 5 4 4 6 6 4 5 6 6 4 5 6 4 2 2 2 2 7 7 6 4 3 3 3
5 5 5 5 6 7 7 7 6 7 7 6 4 5 7 9 9 9 6 6 8 5 6 5 4 6 6 7 8 8 8 5 5 5 3 4 10 9 8 5 5 5 4
4 4 6 7 8 8 9 8 9 8 9 8 7 6 8 10 12 12 10 9 8 8 8 7 7 8 9 9 10 11 10 9 3 7 6 10 11 11 9 6 6 6 6
4 3 5 8 9 9 9 11 10 10 10 10 10 10 9 10 11 12 13 14 11 9 11 10 10 10 10 11 12 12 12 8 8 8 8 15 13 11 9 8 7 8 9
6 5 5 6 8 9 10 10 11 11 11 12 12 12 11 10 9 12 13 14 15 13 13 14 13 13 13 12 10 13 14 9 11 10 10 17 14 11 10 8 8 9 10
6 9 9 9 10 11 12 12 12 12 12 12 13 13 14 13 14 14 15 15 16 17 17 14 15 16 16 14 12 12 11 12 12 11 12 18 15 13 10 12 11 11 11
8 9 11 12 13 13 14 14 15 16 15 15 14 14 16 17 17 17 15 14 16 12 16 14 16 15 16 17 18 18 17 16 15 14 15 18 16 15 13 13 16 12 11
10 10 11 12 13 17 16 15 16 17 19 18 16 17 17 18 19 19 18 18 17 17 16 17 18 17 18 20 20 21 21 21 21 20 20 20 19 18 17 14 17 18 15
14 13 12 12 14 15 18 20 17 17 17 20 21 19 20 19 20 20 20 21 21 21 20 20 19 19 20 20 22 22 23 24 23 23 23 22 24 21 21 19 18 18 19
17 17 18 19 20 19 19 20 19 20 21 20 21 22 22 22 21 22 22 22 22 22 22 22 23 22 22 23 24 24 26 26 27 27 27 28 27 27 24 24 23 22 20
16 19 22 23 23 24 25 23 20 19 19 23 22 24 24 23 23 23 24 25 23 23 23 24 24 25 26 25 25 24 25 27 28 29 30 31 32 30 30 28 27 27 26
15 17 18 19 21 22 23 23 25 24 23 22 24 22 25 24 24 25 26 27 24 25 25 25 26 25 26 27 26 26 27 27 28 30 32 32 34 35 34 34 31 30 30
15 17 19 20 21 21 22 22 24 25 27 26 30 31 29 28 29 26 27 27 26 27 29 27 28 26 27 27 22 26 27 29 31 32 34 35 35 36 36 37 38 36 34
12 14 15 17 18 20 19 18 19 20 20 22 26 28 26 27 28 28 27 26 25 28 30 30 29 29 30 30 28 33 32 33 35 38 37 38 37 37 36 37 40 41 38
8 8 9 11 13 14 17 17 15 14 13 15 15 16 23 22 21 25 23 23 25 25 29 31 29 31 34 32 34 34 24 30 33 29 27 30 28 28 30 32 36 40 41
5 6 7 9 11 12 13 15 16 15 16 14 13 13 14 19 18 18 19 19 20 22 26 28 28 29 33 34 36 33 13 17 22 21 24 28 27 29 31 32 35 36 34
2 3 5 6 8 9 9 6 7 8 9 9 10 10 12 14 15 15 14 14 15 17 19 23 23 23 24 31 33 37 39 38 24 22 24 27 28 28 31 34 34 36 36
3 2 3 4 4 5 6 5 3 7 8 9 11 12 11 11 12 13 13 16 17 16 18 19 21 23 25 28 29 35 40 41 43 40 33 31 36 32 35 36 38 38 39
5 4 4 5 6 7 8 8 6 4 4 5 8 9 10 11 11 11 15 14 15 19 21 22 21 22 24 27 30 32 36 37 34 36 37 38 39 41 38 38 42 45 44
Wind_Direction
142 157 138 132 129 105 99 96 70 60 73 97 70 75 102 95 124 134 141 128 130 125 129 133 129 129 121 111 112 111 105 121 116 110 100 98 97 86 58 38 24 18 23
152 159 145 138 136 113 99 75 53 39 53 82 112 78 86 111 149 169 177 171 117 102 106 112 99 117 122 130 123 117 111 126 114 115 95 73 70 52 26 19 0 11 30
152 165 156 143 150 131 103 60 43 32 46 49 94 89 79 93 148 194 171 120 123 131 97 124 112 104 128 141 136 123 121 124 112 87 68 24 355 347 351 348 351 17 43
152 149 165 153 157 157 108 54 43 28 21 35 104 124 136 50 127 148 131 126 129 135 146 101 119 115 125 143 158 149 155 156 139 75 66 76 2 298 324 327 343 40 49
152 154 189 165 165 163 151 59 32 29 18 23 76 65 323 40 133 204 143 138 141 130 128 134 113 129 159 154 184 206 199 211 156 64 74 87 36 316 315 318 13 113 121
157 160 175 172 176 180 197 250 346 3 18 16 21 330 321 332 201 229 185 172 168 161 173 139 174 171 152 139 150 194 222 232 108 255 40 339 253 310 307 318 280 177 166
162 175 189 186 190 199 232 287 309 325 333 0 26 221 263 309 303 269 213 223 205 196 197 208 236 229 170 165 170 208 235 246 180 326 351 86 276 330 326 337 297 213 206
172 182 227 207 211 222 246 276 297 306 306 308 296 242 242 269 286 269 245 235 221 224 227 242 243 186 185 193 209 234 249 267 60 293 345 304 294 317 321 312 295 263 234
187 200 210 253 231 242 257 272 284 293 294 291 274 253 246 251 272 292 234 236 281 275 253 280 248 222 220 222 225 245 269 274 157 274 289 318 299 319 314 301 291 274 252
203 214 222 224 253 258 258 265 278 283 290 287 280 268 258 257 260 259 267 267 264 284 282 279 258 247 244 250 254 259 267 274 267 276 286 271 286 306 306 292 280 270 258
224 236 225 238 240 246 247 267 273 272 272 276 280 276 271 262 269 258 257 265 266 267 268 265 254 255 256 258 262 262 270 276 279 274 276 275 293 303 300 292 285 273 260
240 266 272 262 256 256 254 255 282 276 273 270 266 273 275 272 241 246 257 264 270 266 267 261 257 256 257 258 267 267 264 263 265 265 268 271 289 295 286 290 288 278 263
260 263 277 264 258 251 265 268 268 273 265 266 262 265 265 262 265 258 253 273 264 265 269 268 261 260 258 256 249 247 253 252 252 261 263 271 281 285 278 281 290 280 270
277 272 261 261 264 259 254 261 272 269 271 266 266 266 265 266 262 262 269 254 267 257 274 257 267 256 265 258 258 255 256 255 257 258 259 274 274 276 275 264 279 275 271
289 288 281 270 255 269 273 262 253 262 269 269 260 266 265 265 268 267 264 264 260 262 250 255 255 260 262 267 262 265 265 264 265 262 267 269 272 268 267 260 262 274 270
288 288 282 273 265 261 261 283 270 256 255 259 267 261 265 262 264 267 267 267 265 267 267 261 257 258 263 262 268 269 266 267 267 268 269 269 275 270 267 263 256 255 267
287 283 278 272 268 268 270 266 263 271 260 258 259 262 262 266 262 261 266 266 267 267 267 266 266 265 261 262 263 263 267 267 268 269 270 271 270 274 268 264 261 256 248
284 281 280 276 277 275 270 267 264 260 260 272 264 262 263 264 263 260 262 264 265 265 266 266 265 267 270 267 264 264 269 275 273 270 271 270 271 271 273 268 264 261 256
287 283 278 270 271 274 270 265 265 266 264 259 264 264 273 270 263 262 261 264 262 265 264 262 265 264 265 270 270 272 266 260 268 275 275 272 273 274 273 273 270 265 259
285 282 277 273 273 274 274 271 265 262 266 266 269 275 269 265 266 260 261 262 258 260 264 261 265 264 267 270 259 263 264 271 273 272 275 276 275 276 276 272 272 268 263
286 289 287 281 273 269 269 271 268 262 265 265 271 278 274 268 268 265 262 259 254 253 261 264 269 266 265 269 264 270 268 264 267 275 278 278 277 277 277 274 272 270 265
290 297 299 297 295 285 270 262 255 256 259 265 263 270 285 284 271 271 271 268 261 260 262 261 263 267 267 269 263 274 267 278 281 288 284 279 282 280 274 275 272 271 268
298 313 316 314 309 302 295 279 266 265 266 267 274 282 278 279 282 275 277 273 270 267 265 270 273 270 271 275 271 263 262 263 275 264 262 273 277 274 275 273 272 273 273
307 323 324 321 313 306 304 299 270 256 268 275 280 280 270 284 294 294 291 289 282 278 271 270 277 281 277 275 277 267 273 273 276 281 265 270 277 274 277 275 272 273 274
148 116 71 38 7 351 343 331 263 233 236 258 255 265 267 276 286 291 295 299 295 290 288 283 285 286 285 285 283 280 273 276 278 266 275 268 269 273 280 279 283 281 278
167 146 108 80 61 55 56 50 42 22 344 307 294 290 281 282 279 268 276 270 275 290 294 292 289 288 292 287 285 286 279 269 269 272 272 274 272 275 273 276 280 283 285